GEFSSGP_con_probscp_006.txt.gz
Probability
0 0 0 0 0 0 0 0 0 0 0 0 0 1 3 5 11 19 25 54 78 57 19 2 0 0 0 0 0 0 2 6 8 7 3 0 0 0 0 0 0 0 0 0 1 1 0 0 0
0 0 0 0 0 0 0 0 0 0 0 0 0 1 3 3 5 9 25 57 70 45 16 2 0 0 0 0 0 1 3 7 12 11 7 3 1 0 0 0 1 3 6 7 7 5 3 2 1
0 0 0 0 0 0 0 0 0 0 0 0 0 1 1 1 0 4 22 43 48 32 12 2 0 0 0 0 0 1 2 6 12 15 14 9 4 1 1 1 5 16 26 26 20 14 9 5 3
0 0 0 0 0 0 0 0 0 0 0 0 0 0 0 0 1 4 11 19 21 14 6 1 0 0 0 0 0 0 1 5 11 19 22 16 7 3 3 6 18 37 50 43 27 17 10 5 2
0 0 0 0 0 0 0 0 0 0 0 0 0 0 0 0 1 2 3 6 8 5 2 0 0 0 0 0 1 1 4 10 19 28 31 25 17 15 16 22 38 54 54 37 19 8 4 2 1
0 0 0 0 0 0 0 0 0 0 0 0 0 0 0 0 1 1 2 6 11 12 8 2 0 0 1 2 4 5 9 19 30 38 40 36 34 36 38 45 57 58 41 19 5 1 0 0 0
0 0 0 0 0 0 0 0 0 0 0 0 0 0 0 0 0 1 3 8 18 25 17 4 0 1 2 4 6 9 15 28 40 45 45 41 41 45 49 56 58 47 25 7 0 0 0 0 0
0 0 0 0 0 0 0 0 0 0 0 0 0 0 1 1 1 2 5 9 21 31 21 6 3 3 2 2 4 7 13 24 34 37 35 30 28 32 37 41 36 24 11 3 0 0 0 0 0
0 0 0 0 0 0 0 0 0 0 0 1 4 6 4 1 0 3 7 11 20 29 23 13 11 8 3 1 1 2 5 11 15 16 15 13 14 17 19 18 13 6 2 0 0 0 0 0 0
0 0 0 0 0 0 0 0 0 0 0 3 12 18 10 2 0 3 11 17 24 34 31 19 15 11 5 1 0 1 1 2 5 7 7 6 9 12 10 5 3 1 0 0 0 0 0 0 0
0 0 0 0 0 0 0 0 0 0 0 3 15 23 15 3 2 7 18 25 31 37 29 15 12 15 11 5 1 2 5 9 15 18 12 7 7 8 6 2 0 0 0 0 0 0 0 0 0
0 0 0 0 0 0 0 0 0 0 0 1 10 18 13 4 2 10 21 25 25 26 24 23 30 40 38 25 10 7 13 22 28 21 9 3 2 2 3 2 0 0 0 0 0 0 0 0 0
0 0 0 0 0 0 0 0 0 0 0 0 4 9 9 4 3 8 14 14 15 26 40 54 66 74 71 55 30 15 17 24 23 13 3 0 0 0 1 1 0 0 1 3 3 1 0 0 0
0 0 0 0 0 0 0 0 0 0 0 0 1 3 5 5 4 5 7 8 20 47 73 83 86 89 83 65 38 16 10 11 9 5 1 0 0 0 0 1 1 1 3 8 7 5 7 8 6
0 0 0 0 0 0 0 0 0 0 0 0 0 0 2 4 4 3 8 20 43 75 94 91 85 85 85 67 40 18 6 3 3 2 1 0 0 1 2 5 7 9 13 15 17 23 31 32 30
0 0 0 0 0 0 0 0 0 0 0 0 0 1 3 6 5 6 17 39 66 85 91 81 71 77 87 80 61 40 25 16 9 3 0 0 0 2 6 14 24 35 41 37 39 53 63 64 65
0 0 0 0 0 0 0 0 0 0 0 0 0 1 5 10 11 17 34 55 74 79 73 59 57 70 87 93 88 72 57 42 27 18 15 11 6 8 18 33 52 69 76 71 66 74 83 84 84
0 0 0 0 0 0 0 0 0 0 0 0 0 1 6 13 20 33 53 69 78 76 59 46 54 74 90 97 98 91 81 68 54 51 51 42 32 35 46 61 77 90 94 90 85 83 85 83 81
0 0 0 0 0 0 0 0 0 0 0 0 0 3 12 24 36 54 73 83 87 81 65 55 66 83 95 99 100 98 93 84 77 77 77 71 63 63 70 79 86 91 93 93 90 86 78 70 65
0 0 0 0 0 0 0 0 0 0 0 0 0 6 22 43 61 76 87 91 91 88 80 75 80 90 96 98 98 98 95 88 81 77 74 66 60 61 66 73 77 79 78 79 80 76 66 52 44
0 0 0 0 0 0 0 0 0 0 0 0 3 14 37 62 77 81 81 82 84 84 83 82 84 86 88 88 89 90 88 81 70 60 50 39 35 39 46 51 57 58 54 52 54 50 42 31 24
0 0 0 0 0 0 0 0 0 0 0 2 10 28 52 68 71 63 55 53 57 62 67 70 70 68 66 65 64 63 62 57 47 34 23 17 19 24 26 31 39 42 35 30 28 23 17 12 10
0 0 0 0 0 0 0 0 1 3 7 10 20 37 50 53 46 34 24 21 25 32 40 44 44 41 37 34 30 27 26 25 19 11 6 6 9 11 12 18 30 32 26 22 17 11 6 4 4
0 0 0 0 0 0 0 0 5 14 23 25 25 31 34 27 18 11 6 4 7 12 16 19 18 17 14 10 7 5 5 5 3 1 1 1 2 3 4 10 19 20 17 15 11 6 4 3 2
0 0 0 0 0 0 0 2 13 30 43 39 29 23 18 9 4 2 1 0 1 3 3 4 4 3 3 1 1 1 1 1 0 0 0 0 0 1 1 3 7 8 7 6 3 1 1 1 1
0 0 0 0 0 0 0 5 21 41 55 49 29 15 8 3 1 1 1 0 0 0 0 0 0 0 0 0 0 0 0 0 0 0 0 0 0 0 0 1 2 2 2 1 0 0 0 0 0
0 0 0 0 0 0 0 10 30 54 63 50 24 8 4 2 1 0 0 0 0 0 0 0 0 0 0 0 0 0 0 0 0 0 0 0 0 0 0 0 0 0 0 0 0 0 0 0 0
0 0 0 0 0 0 0 12 39 62 64 43 17 5 2 1 0 0 0 0 0 0 0 0 0 0 0 0 0 0 0 0 0 0 0 0 0 0 0 0 0 0 0 0 0 0 0 0 0
0 0 0 0 0 0 0 9 30 53 56 35 13 3 1 0 0 0 0 0 0 0 0 0 0 0 0 0 0 0 0 0 0 0 0 0 0 0 0 0 0 0 0 0 0 0 0 0 0
0 0 0 0 0 0 0 3 14 36 49 34 11 2 0 0 0 0 0 0 0 0 0 0 0 0 0 0 0 0 0 0 0 0 0 0 0 0 0 0 0 0 0 0 0 0 0 0 0

GEFSSGP_con_probscp_012.txt.gz
Probability
0 0 0 0 0 0 0 0 0 0 0 1 3 9 12 8 2 1 1 1 1 0 0 0 0 0 0 0 0 0 0 0 0 1 2 2 2 1 0 0 0 0 0 0 0 0 0 0 0
0 0 0 0 0 0 0 0 0 0 0 1 4 8 9 5 1 1 1 0 0 0 0 0 0 0 0 0 0 0 0 0 0 0 1 1 1 1 0 0 0 0 0 0 0 0 0 0 0
0 0 0 0 0 0 0 0 0 0 0 0 2 4 3 2 1 1 0 0 0 0 0 0 0 0 0 0 0 0 0 0 0 0 0 1 2 2 1 1 1 0 0 0 0 0 0 0 0
0 0 0 0 0 0 0 0 0 0 0 0 0 0 0 2 5 4 1 0 0 0 0 0 0 0 0 0 0 1 1 2 1 1 0 1 2 3 4 4 3 1 1 2 1 0 0 0 0
0 0 0 0 0 0 0 0 0 0 0 0 0 0 0 5 10 8 3 1 0 0 0 0 0 0 0 1 2 3 6 7 8 7 4 1 1 2 5 7 5 3 3 4 3 1 0 0 0
0 0 0 0 0 0 0 0 0 0 0 0 0 0 1 7 13 12 8 4 1 0 0 0 0 0 1 3 5 6 9 13 14 13 8 3 1 1 4 6 5 3 3 3 3 1 0 0 0
0 0 0 0 0 0 0 0 0 0 0 0 0 1 2 8 15 17 12 6 2 0 0 0 0 0 1 4 6 6 9 13 15 13 10 4 2 2 2 2 2 1 1 1 1 0 0 0 0
0 0 0 0 0 0 0 0 0 0 0 0 0 1 4 14 25 28 21 11 3 1 0 0 0 0 1 2 3 5 10 13 14 15 13 7 3 2 1 0 0 0 0 0 0 0 0 0 0
0 0 0 0 0 0 0 0 0 0 1 2 2 4 13 28 41 46 38 20 7 2 1 0 0 0 0 0 0 3 8 12 12 13 13 7 2 1 0 0 0 0 0 0 0 0 0 0 0
0 0 0 0 0 0 0 0 0 1 3 6 9 17 31 46 59 65 53 30 11 4 3 1 0 0 0 0 0 1 3 5 5 5 5 3 1 0 0 0 0 0 0 0 0 0 0 0 0
0 0 0 0 0 0 0 0 0 2 3 6 14 29 45 58 68 69 56 32 14 9 7 3 0 0 0 0 0 0 0 0 0 0 0 0 0 0 0 0 0 0 0 0 0 0 0 0 0
0 0 0 0 0 0 0 0 0 1 1 4 16 31 44 56 62 60 51 34 20 15 11 5 1 0 0 0 0 1 1 0 0 0 0 0 0 0 0 0 0 0 0 0 0 0 0 0 0
0 0 0 0 0 0 0 0 0 0 1 5 14 24 32 43 49 50 47 41 32 22 12 7 4 2 1 0 1 1 1 0 0 0 0 0 0 0 0 0 0 0 0 0 0 0 0 0 0
0 0 0 0 0 0 0 0 0 0 2 7 11 14 19 30 39 46 49 48 42 29 16 10 7 3 2 1 1 1 1 0 0 0 0 0 0 0 0 0 0 0 0 0 0 0 0 0 0
0 0 0 0 0 0 0 0 0 0 2 7 9 10 16 25 35 46 53 53 48 37 24 14 8 3 1 1 1 0 0 0 0 0 0 0 0 0 0 0 0 0 0 0 0 0 0 0 0
0 0 0 0 0 0 0 0 0 1 2 7 13 21 28 32 35 44 52 53 49 39 25 13 5 2 1 1 0 0 0 0 0 0 0 0 0 0 0 0 0 0 0 0 0 0 0 0 0
0 0 0 0 0 0 0 0 0 3 6 12 24 40 50 47 41 41 46 47 41 29 17 9 5 4 3 2 1 0 0 0 0 0 0 0 0 0 0 0 0 0 0 0 0 0 0 0 0
0 0 0 0 0 0 0 0 2 8 15 25 40 58 69 67 54 44 39 34 25 15 8 6 6 6 5 4 3 1 0 0 0 0 0 0 0 0 0 0 0 0 0 0 0 0 0 0 0
0 0 0 0 0 0 0 1 3 10 24 42 57 73 82 81 67 48 32 19 10 5 3 3 3 4 5 5 3 1 0 0 0 0 0 0 0 0 0 0 0 0 0 0 0 0 0 0 0
0 0 0 0 0 0 0 0 2 9 30 56 75 85 90 88 73 51 30 15 5 2 1 1 1 2 3 3 2 0 0 0 0 0 0 0 0 0 0 0 0 0 0 0 0 0 0 0 0
0 0 0 0 0 0 0 0 1 12 37 66 83 89 91 88 76 53 30 16 7 1 0 0 0 0 1 1 0 0 0 0 0 0 0 0 0 0 0 0 0 0 0 0 0 0 0 0 0
0 0 0 0 0 0 0 0 3 18 45 68 78 79 78 76 66 45 23 11 4 1 0 0 0 0 0 0 0 0 0 0 0 0 0 0 0 0 0 0 0 0 0 0 0 0 0 0 0
0 0 0 0 0 0 0 0 3 20 46 64 68 63 56 49 39 24 11 3 1 0 0 0 0 0 0 0 0 0 0 0 0 0 0 0 0 0 0 0 0 0 0 0 0 0 0 0 0
0 0 0 0 0 0 0 0 2 16 43 63 63 51 35 22 14 7 2 0 0 0 0 0 0 0 0 0 0 0 0 0 0 0 0 0 0 0 0 0 0 0 0 0 0 0 0 0 0
0 0 0 0 0 0 0 0 2 14 40 60 55 35 18 7 3 1 0 0 0 0 0 0 0 0 0 0 0 0 0 0 0 0 0 0 0 0 0 0 0 0 0 0 0 0 0 0 0
0 0 0 0 0 0 0 0 2 14 34 44 33 15 5 2 0 0 0 0 0 0 0 0 0 0 0 0 0 0 0 0 0 0 0 0 0 0 0 0 0 0 0 0 0 0 0 0 0
0 0 0 0 0 0 0 0 2 11 22 24 15 4 0 0 0 0 0 0 0 0 0 0 0 0 0 0 0 0 0 0 0 0 0 0 0 0 0 0 0 0 0 0 0 0 0 0 0
0 0 0 0 0 0 0 0 2 10 18 17 9 2 0 0 0 0 0 0 0 0 0 0 0 0 0 0 0 0 0 0 0 0 0 0 0 0 0 0 0 0 0 0 0 0 0 0 0
0 0 0 0 0 0 0 0 2 13 21 16 6 2 0 0 0 0 0 0 0 0 0 0 0 0 0 0 0 0 0 0 0 0 0 0 0 0 0 0 0 0 0 0 0 0 0 0 0
0 0 0 0 0 0 0 0 2 12 20 14 4 1 0 0 0 0 0 0 0 0 0 0 0 0 0 0 0 0 0 0 0 0 0 0 0 0 0 0 0 0 0 0 0 0 0 0 0

GEFSSGP_con_probscp_018.txt.gz
Probability
0 0 0 0 0 0 0 0 0 0 0 0 0 0 0 0 0 0 0 0 0 0 0 0 0 0 0 0 0 0 0 0 0 0 0 0 0 0 0 0 0 0 0 0 0 0 0 0 0
0 0 0 0 0 0 0 0 0 0 0 0 0 0 0 0 0 0 0 0 0 0 0 0 0 0 0 0 0 0 0 0 0 0 0 0 0 0 0 0 0 0 0 0 0 0 0 0 0
0 0 0 0 0 0 0 0 0 0 0 0 0 0 0 0 0 0 0 0 0 0 0 0 0 0 0 0 0 0 0 0 0 0 0 0 0 0 0 0 0 0 0 0 0 0 0 0 0
0 0 0 0 0 0 0 0 0 0 0 0 0 0 0 0 0 0 0 0 0 0 0 0 0 0 0 0 0 0 0 0 0 0 0 0 0 0 0 0 0 0 0 0 0 0 1 0 0
0 0 0 0 0 0 0 0 0 0 0 0 0 0 0 0 1 1 1 1 0 0 0 0 0 0 0 0 0 0 0 0 0 0 0 0 0 0 0 0 0 0 0 0 0 0 0 0 0
0 0 0 0 0 0 0 0 0 0 0 0 0 0 0 1 2 1 1 2 1 0 0 0 0 0 0 0 0 0 0 0 0 0 0 0 0 0 0 0 0 0 0 0 0 0 0 0 0
0 0 0 0 0 0 0 0 0 0 0 0 0 0 0 0 1 1 1 1 0 0 0 0 0 0 0 0 0 0 0 0 0 0 0 0 0 0 0 0 0 0 0 0 0 0 0 0 0
0 0 0 0 0 0 0 0 0 0 0 0 0 0 1 3 5 5 4 1 1 0 0 0 0 0 0 0 0 0 0 0 0 0 0 0 0 0 0 0 0 0 0 0 0 0 0 0 0
0 0 0 0 0 0 0 0 0 0 0 0 1 6 13 17 15 11 6 3 2 1 0 0 1 0 0 0 0 0 0 0 0 0 0 0 0 0 0 0 0 0 0 0 0 0 0 0 0
0 0 0 0 0 0 0 0 0 0 0 3 11 27 41 37 23 13 6 3 3 2 0 0 0 0 0 0 0 0 0 0 0 0 0 0 0 0 0 0 0 0 0 0 0 0 0 0 0
0 0 0 0 0 0 0 0 0 0 1 7 29 59 69 51 27 11 3 1 2 1 0 0 0 0 0 0 0 0 0 0 0 0 0 0 0 0 0 0 0 0 0 0 0 0 0 0 0
0 0 0 0 0 0 0 0 0 0 3 16 48 79 80 55 27 10 3 1 1 0 0 0 0 0 0 0 0 0 0 0 0 0 0 0 0 0 0 0 0 0 0 0 0 0 0 0 0
0 0 0 0 0 0 0 0 0 1 10 33 66 87 81 54 28 12 5 2 1 0 0 0 0 0 0 0 0 0 0 0 0 0 0 0 0 0 0 0 0 0 0 0 0 0 0 0 0
0 0 0 0 0 0 0 0 0 4 21 53 81 91 81 56 31 17 9 4 1 0 0 0 0 0 0 0 0 0 0 0 0 0 0 0 0 0 0 0 0 0 0 0 0 0 0 0 0
0 0 0 0 0 0 0 0 0 7 31 66 87 91 81 59 36 21 12 7 4 2 1 0 0 0 0 0 0 0 0 0 0 0 0 0 0 0 0 0 0 0 0 0 0 0 0 0 0
0 0 0 0 0 0 0 0 0 8 34 67 86 89 81 63 40 24 15 11 7 5 3 1 0 0 0 0 0 0 0 0 0 0 0 0 0 0 0 0 0 0 0 0 0 0 0 0 0
0 0 0 0 0 0 0 0 0 6 26 57 80 88 82 66 44 27 18 14 10 6 3 1 0 0 0 0 0 0 0 0 0 0 0 0 0 0 0 0 0 0 0 0 0 0 0 0 0
0 0 0 0 0 0 0 0 1 4 16 38 64 78 76 62 42 25 16 12 8 4 1 0 0 0 0 0 0 0 0 0 0 0 0 0 0 0 0 0 0 0 0 0 0 0 0 0 0
0 0 0 0 0 0 0 0 1 4 11 25 44 60 63 52 33 17 8 5 3 1 0 0 0 0 0 0 0 0 0 0 0 0 0 0 0 0 0 0 0 0 0 0 0 0 0 0 0
0 0 0 0 0 0 0 0 1 4 12 22 34 45 48 43 29 13 4 1 0 0 0 0 0 0 0 0 0 0 0 0 0 0 0 0 0 0 0 0 0 0 0 0 0 0 0 0 0
0 0 0 0 0 0 0 0 0 4 11 19 27 34 38 37 29 14 4 1 0 0 0 0 0 0 0 0 0 0 0 0 0 0 0 0 0 0 0 0 0 0 0 0 0 0 0 0 0
0 0 0 0 0 0 0 0 0 3 9 16 24 34 40 40 32 17 5 1 0 0 0 0 0 0 0 0 0 0 0 0 0 0 0 0 0 0 0 0 0 0 0 0 0 0 0 0 0
0 0 0 0 0 0 0 0 0 3 8 17 34 52 60 55 40 20 6 0 0 0 0 0 0 0 0 0 0 0 0 0 0 0 0 0 0 0 0 0 0 0 0 0 0 0 0 0 0
0 0 0 0 0 0 0 0 0 1 7 23 49 72 80 68 42 18 4 0 0 0 0 0 0 0 0 0 0 0 0 0 0 0 0 0 0 0 0 0 0 0 0 0 0 0 0 0 0
0 0 0 0 0 0 0 0 0 0 6 27 58 80 85 67 37 13 2 0 0 0 0 0 0 0 0 0 0 0 0 0 0 0 0 0 0 0 0 0 0 0 0 0 0 0 0 0 0
0 0 0 0 0 0 0 0 0 0 6 28 60 80 78 58 29 9 1 0 0 0 0 0 0 0 0 0 0 0 0 0 0 0 0 0 0 0 0 0 0 0 0 0 0 0 0 0 0
0 0 0 0 0 0 0 0 0 0 7 31 61 76 68 44 18 5 1 0 0 0 0 0 0 0 0 0 0 0 0 0 0 0 0 0 0 0 0 0 0 0 0 0 0 0 0 0 0
0 0 0 0 0 0 0 0 0 1 9 31 56 66 54 28 9 1 0 0 0 0 0 0 0 0 0 0 0 0 0 0 0 0 0 0 0 0 0 0 0 0 0 0 0 0 0 0 0
0 0 0 0 0 0 0 0 0 1 8 25 43 49 36 15 3 0 0 0 0 0 0 0 0 0 0 0 0 0 0 0 0 0 0 0 0 0 0 0 0 0 0 0 0 0 0 0 0
0 0 0 0 0 0 0 0 0 0 5 18 33 37 24 8 1 0 0 0 0 0 0 0 0 0 0 0 0 0 0 0 0 0 0 0 0 0 0 0 0 0 0 0 0 0 0 0 0

GEFSSGP_con_probscp_024.txt.gz
Probability
0 0 0 0 0 0 0 0 0 0 0 0 0 0 0 0 0 0 0 0 0 0 0 0 0 0 0 0 0 0 1 2 2 1 0 0 0 0 0 0 0 0 0 0 0 0 0 0 0
0 0 0 0 0 0 0 0 0 0 0 0 0 0 0 0 0 0 0 0 0 0 0 0 0 0 0 0 0 0 0 1 1 0 0 0 0 0 0 0 0 0 0 0 0 0 0 0 0
0 0 0 0 0 0 0 0 0 0 0 0 0 0 0 0 0 0 0 0 0 0 0 0 0 0 0 0 0 0 0 0 0 0 0 0 0 0 0 0 0 0 0 0 0 0 0 0 0
0 0 0 0 0 0 0 0 0 0 0 0 0 0 0 0 0 0 0 0 0 0 0 0 0 0 0 0 0 0 0 0 0 0 0 0 0 0 0 0 0 0 0 0 0 0 0 0 0
0 0 0 0 0 0 0 0 0 0 0 0 0 0 0 0 0 0 0 0 0 0 0 0 0 0 0 0 0 0 0 0 0 0 0 0 0 0 0 0 0 0 0 0 0 0 0 0 0
0 0 0 0 0 0 0 0 0 0 0 0 0 0 0 0 0 0 0 0 0 0 0 0 0 0 0 0 0 0 0 0 0 0 0 0 0 0 0 0 0 0 0 0 0 0 0 0 0
0 0 0 0 0 0 0 0 0 0 0 0 0 0 0 0 1 0 0 0 0 0 0 0 0 0 0 0 0 0 0 0 0 0 0 0 0 0 0 0 0 0 0 0 0 0 0 0 0
0 0 0 0 0 0 0 0 0 0 0 0 0 0 1 3 3 1 0 0 0 0 0 0 0 0 0 0 0 0 0 0 0 0 0 0 0 0 0 0 0 0 0 0 0 0 0 0 0
0 0 0 0 0 0 0 0 0 0 0 0 0 0 3 7 7 4 1 0 0 0 0 0 0 0 0 0 0 0 0 0 0 0 0 0 0 0 1 1 1 0 0 0 0 0 0 0 0
0 0 0 0 0 0 0 0 0 0 0 0 0 0 4 10 11 6 2 0 0 0 0 0 0 0 0 0 0 0 0 0 0 0 0 0 0 0 1 1 1 0 0 0 0 0 0 0 0
0 0 0 0 0 0 0 0 0 0 0 0 1 3 7 11 11 7 3 1 0 0 0 0 0 0 0 0 0 0 0 0 0 0 0 0 0 0 0 0 0 0 0 0 0 0 0 0 0
0 0 0 0 0 0 0 0 0 0 0 1 3 7 12 12 8 5 3 1 0 0 0 0 0 0 0 0 0 0 0 0 0 0 0 0 0 0 0 0 0 0 0 0 0 0 0 0 0
0 0 0 0 0 0 0 0 0 0 0 1 4 10 13 11 7 5 4 3 2 1 0 1 1 1 0 0 0 0 0 0 0 0 0 0 0 0 0 0 0 0 0 0 0 0 0 0 0
0 0 0 0 0 0 0 0 0 0 1 2 5 9 13 11 11 14 15 13 8 4 2 2 2 2 2 1 0 0 0 0 0 0 0 0 0 0 0 0 0 0 0 0 0 0 0 0 0
0 0 0 0 0 0 0 0 0 1 2 3 5 9 15 20 27 35 40 35 23 15 12 8 6 7 10 9 4 2 1 1 1 0 0 0 0 0 0 0 0 0 0 0 0 0 0 0 0
0 0 0 0 0 0 0 0 0 1 2 3 4 9 21 37 52 62 68 65 51 38 32 25 21 23 28 25 16 8 5 4 3 2 1 1 0 0 0 0 0 0 0 0 0 0 1 1 1
0 0 0 0 0 0 0 0 0 1 2 4 5 12 30 54 71 82 88 87 79 67 59 51 46 48 50 43 29 15 9 7 6 4 2 1 0 0 0 0 1 0 0 0 1 2 3 3 3
0 0 0 0 0 0 0 1 1 2 4 6 8 19 42 67 83 93 97 95 92 86 81 75 70 67 62 48 30 16 9 6 3 2 2 1 0 0 0 0 0 0 0 0 2 3 4 4 3
0 0 0 0 0 0 0 1 2 3 6 7 11 26 52 75 90 97 98 95 93 92 89 85 80 71 59 42 24 12 6 2 1 0 0 0 0 0 0 0 0 0 0 0 1 1 2 1 1
0 0 0 0 0 0 0 0 1 2 5 9 16 30 54 78 93 97 96 92 89 89 87 83 76 64 49 33 18 8 3 1 0 0 0 0 0 0 0 0 0 0 0 0 0 0 0 0 0
0 0 0 0 0 0 0 0 0 1 4 11 21 33 53 78 94 95 92 87 82 80 77 70 61 50 36 21 11 5 2 1 0 0 0 0 0 0 0 0 0 0 0 0 0 0 0 0 0
0 0 0 0 0 0 0 0 0 1 4 10 21 32 51 76 91 92 85 76 68 61 56 49 42 34 23 12 6 4 1 0 0 0 0 0 0 0 0 0 0 0 0 0 0 0 0 0 0
0 0 0 0 0 0 0 0 0 1 3 6 15 28 50 74 88 84 70 54 42 34 28 25 21 17 12 7 5 4 2 0 0 0 0 0 0 0 0 0 0 0 0 0 0 0 0 0 0
0 0 0 0 0 0 0 0 0 1 1 2 10 26 51 76 82 67 44 26 16 11 9 8 6 5 4 3 3 2 2 0 0 0 0 0 0 0 0 0 0 0 0 0 0 0 0 0 0
0 0 0 0 0 0 0 0 0 0 0 1 7 27 55 76 70 43 20 8 3 2 1 1 0 0 0 0 0 1 1 0 0 0 0 0 0 0 0 0 0 0 0 0 0 0 0 0 0
0 0 0 0 0 0 0 0 0 0 0 0 7 30 62 74 57 27 8 2 0 0 0 0 0 0 0 0 0 0 0 0 0 0 0 0 0 0 0 0 0 0 0 0 0 0 0 0 0
0 0 0 0 0 0 0 0 0 0 0 0 8 35 67 73 50 22 6 1 0 0 0 0 0 0 0 0 0 0 0 0 0 0 0 0 0 0 0 0 0 0 0 0 0 0 0 0 0
0 0 0 0 0 0 0 0 0 0 0 1 10 37 67 71 46 19 6 1 0 0 0 0 0 0 0 0 0 0 0 0 0 0 0 0 0 0 0 0 0 0 0 0 0 0 0 0 0
0 0 0 0 0 0 0 0 0 0 0 1 9 35 65 68 42 16 4 1 0 0 0 0 0 0 0 0 0 0 0 0 0 0 0 0 0 0 0 0 0 0 0 0 0 0 0 0 0
0 0 0 0 0 0 0 0 0 0 0 0 9 35 65 67 39 13 3 1 0 0 0 0 0 0 0 0 0 0 0 0 0 0 0 0 0 0 0 0 0 0 0 0 0 0 0 0 0

GEFSSGP_con_probscp_030.txt.gz
Probability
0 0 0 0 0 0 0 0 0 0 0 0 0 1 3 4 2 1 5 17 26 15 3 4 4 2 0 0 0 0 0 0 0 0 0 0 0 0 0 0 0 0 0 0 0 0 0 0 0
0 0 0 0 0 0 0 0 0 0 0 0 0 0 1 1 1 2 6 13 15 7 1 1 2 1 0 0 0 0 0 0 0 0 0 0 0 0 0 0 0 0 0 0 0 0 0 0 0
0 0 0 0 0 0 0 0 0 0 0 0 0 0 0 0 1 3 4 5 4 1 0 0 0 0 0 0 0 0 0 0 0 0 0 0 0 0 0 0 0 0 0 0 0 0 0 0 0
0 0 0 0 0 0 0 0 0 0 0 0 0 0 0 2 4 3 1 0 0 0 0 0 0 0 0 0 0 0 0 0 0 0 0 0 0 0 0 0 0 0 0 0 0 0 0 0 0
0 0 0 0 0 0 0 0 0 0 0 0 0 0 1 5 7 4 0 0 0 0 0 0 0 0 0 0 0 0 0 0 0 0 0 0 0 0 0 0 0 0 0 0 0 0 0 0 0
0 0 0 0 0 0 0 0 0 0 1 0 0 0 1 5 6 3 0 0 0 0 0 0 0 0 0 0 0 0 0 0 0 0 0 0 0 0 0 0 0 0 0 0 0 0 0 0 0
0 0 0 0 0 0 0 0 0 0 0 0 0 0 2 5 4 1 0 0 0 0 0 0 0 0 0 0 0 0 0 0 0 0 0 0 0 0 0 0 0 0 0 0 0 0 0 0 0
0 0 0 0 0 0 0 0 0 0 0 0 0 0 4 7 4 0 0 0 0 0 0 0 0 0 0 0 0 0 0 0 0 0 0 0 0 0 0 0 0 0 0 0 0 0 0 0 0
0 0 0 0 0 0 0 0 0 0 0 0 0 1 4 6 3 0 0 1 1 0 0 1 2 1 0 0 0 0 0 0 0 0 0 0 0 0 0 0 0 0 0 0 0 0 0 0 0
0 0 0 0 0 0 0 0 0 0 0 0 1 3 5 4 2 0 1 2 2 1 2 7 8 3 2 3 2 0 0 0 0 0 0 0 0 0 1 1 1 0 0 0 0 0 0 0 0
0 0 0 0 0 0 0 0 0 0 1 1 4 10 10 6 2 0 2 5 6 4 5 14 17 8 6 9 5 1 1 0 0 0 0 0 0 0 1 2 1 0 0 0 0 0 0 0 0
0 0 0 0 0 0 0 0 0 1 2 2 7 14 16 11 6 2 4 10 15 13 11 22 31 28 28 25 13 4 4 3 2 1 0 1 1 1 1 2 1 0 0 1 0 0 0 0 0
0 0 0 0 0 0 0 0 0 1 2 2 7 14 17 16 11 5 10 22 33 34 30 40 57 63 65 55 33 21 21 18 13 8 5 3 6 10 10 7 4 3 5 7 6 6 5 4 3
0 0 0 0 0 0 0 0 0 0 1 2 6 12 18 20 16 14 24 43 61 65 63 70 83 91 91 78 58 51 50 46 39 32 22 13 15 25 26 21 17 18 21 20 18 19 18 15 13
0 0 0 0 0 0 0 0 0 0 0 1 3 9 18 24 26 30 46 68 85 89 89 92 97 99 97 86 76 74 74 71 70 65 50 31 28 35 37 37 41 43 40 34 32 34 33 31 27
0 0 0 0 0 0 0 0 0 0 0 0 2 6 15 24 33 48 68 86 97 99 99 99 99 100 98 93 88 86 86 88 89 84 68 50 39 37 42 50 56 55 48 42 39 38 38 36 34
0 0 0 0 0 0 0 0 0 0 0 0 1 3 10 20 38 63 83 94 99 100 100 100 100 100 100 98 96 94 94 94 90 82 71 58 43 36 41 49 50 44 41 38 32 29 28 26 24
0 0 0 0 0 0 0 0 0 0 0 0 1 2 6 17 41 70 89 97 100 100 100 100 100 100 100 100 98 96 92 88 81 73 66 54 39 31 32 35 30 25 25 24 18 13 12 11 10
0 0 0 0 0 0 0 0 0 0 0 0 1 2 6 18 43 72 92 99 100 100 100 100 100 100 100 99 97 92 85 77 68 60 52 41 29 22 20 18 14 11 11 10 6 4 3 2 2
0 0 0 0 0 0 0 0 0 0 0 0 2 3 7 20 45 74 93 99 100 100 100 100 100 100 99 97 93 85 75 65 52 41 32 23 15 11 8 6 5 3 2 2 0 0 0 0 0
0 0 0 0 0 0 0 0 0 0 0 0 1 3 7 19 45 75 92 97 99 100 100 100 100 99 97 92 83 71 59 46 33 23 16 11 7 4 2 1 1 0 0 0 0 0 0 0 0
0 0 0 0 0 0 0 0 0 0 0 0 0 1 4 16 41 71 89 97 99 100 100 98 96 93 89 81 71 58 45 33 22 14 9 7 4 2 1 0 0 0 0 0 0 0 0 0 0
0 0 0 0 0 0 0 0 0 0 0 0 0 1 3 15 40 70 90 97 99 98 96 91 84 78 71 65 60 51 39 28 18 11 8 5 2 0 0 0 0 0 0 0 0 0 0 0 0
0 0 0 0 0 0 0 0 0 0 0 0 0 2 7 22 49 78 94 97 94 89 82 73 63 56 50 46 43 37 28 19 13 9 6 4 1 0 0 0 0 0 0 0 0 0 0 0 0
0 0 0 0 0 0 0 0 0 0 0 0 2 7 18 39 66 88 97 93 83 71 59 48 39 33 29 25 22 19 13 9 7 5 4 3 1 0 0 0 0 0 0 0 0 0 0 0 0
0 0 0 0 0 0 0 0 0 0 0 0 3 12 30 53 76 92 92 80 62 47 35 27 20 16 14 10 9 8 6 5 4 3 2 1 0 0 0 0 0 0 0 0 0 0 0 0 0
0 0 0 0 0 0 0 0 0 0 0 0 2 12 32 56 78 87 77 57 39 27 19 14 10 7 6 5 4 4 4 3 3 2 1 0 0 0 0 0 0 0 0 0 0 0 0 0 0
0 0 0 0 0 0 0 0 0 0 0 0 1 10 31 56 77 79 61 40 25 15 10 7 5 3 3 2 2 2 2 1 1 1 0 0 0 0 0 0 0 0 0 0 0 0 0 0 0
0 0 0 0 0 0 0 0 0 0 0 0 3 13 35 61 77 71 52 31 18 9 5 3 3 2 1 1 1 1 1 0 0 0 0 0 0 0 0 0 0 0 0 0 0 0 0 0 0
0 0 0 0 0 0 0 0 1 1 1 1 5 17 42 67 77 66 46 28 14 6 3 2 1 1 0 0 0 0 0 0 0 0 0 0 0 0 0 0 0 0 0 0 0 0 0 0 0

GEFSSGP_con_probscp_036.txt.gz
Probability
0 0 0 0 0 0 0 0 0 0 0 0 1 6 10 5 0 0 0 0 0 1 3 7 10 10 7 3 1 0 0 0 0 0 0 0 0 0 0 0 0 0 0 0 0 0 0 0 0
0 0 0 0 0 0 0 0 0 0 0 0 0 3 5 3 0 0 0 0 0 0 1 3 5 5 3 1 0 0 0 0 0 0 0 0 0 0 0 0 0 0 0 0 0 0 0 0 0
0 0 0 0 0 0 0 0 0 0 0 0 0 1 1 1 1 0 0 0 0 0 0 0 1 1 0 0 0 0 0 0 0 0 0 0 0 0 0 0 0 0 0 0 0 0 0 0 0
0 0 0 0 0 0 0 0 0 0 0 1 3 2 1 2 3 2 0 0 0 0 0 0 0 0 0 0 0 0 0 0 0 0 0 0 0 0 0 0 0 0 0 0 0 0 0 0 0
0 0 0 0 0 0 0 0 0 0 1 4 6 4 1 5 9 5 0 0 0 0 0 0 0 0 0 0 0 0 0 0 0 0 0 0 0 0 0 0 0 0 0 0 0 0 0 0 0
0 0 0 0 0 0 0 0 0 0 1 5 7 3 1 8 13 7 1 0 0 0 0 0 0 0 0 0 0 0 0 0 0 0 0 0 0 0 0 0 0 0 0 0 0 0 0 0 0
0 0 0 0 0 0 0 0 0 0 1 3 4 3 1 7 11 8 3 1 0 0 0 0 0 0 0 0 0 0 0 0 0 0 0 0 0 0 0 0 0 0 0 0 0 0 0 0 0
0 0 0 0 0 0 0 0 0 0 0 1 2 2 1 3 8 11 10 6 2 0 0 0 0 0 0 0 0 0 0 0 0 0 0 0 0 0 0 0 0 0 0 0 0 0 0 0 0
0 0 0 0 0 0 0 0 0 0 1 1 2 2 1 2 6 15 20 15 6 1 0 0 0 0 0 0 0 0 0 0 0 0 0 0 0 0 0 0 0 0 0 0 0 0 0 0 0
0 0 0 0 0 0 0 0 0 1 3 4 5 5 4 4 7 17 29 26 14 4 1 1 0 1 1 0 0 0 0 0 0 0 0 0 0 0 0 0 0 0 0 0 0 0 0 0 0
0 0 0 0 0 0 0 0 0 1 4 8 12 12 9 9 12 20 33 36 23 9 4 3 2 2 2 1 0 0 0 0 0 0 0 0 0 0 0 0 0 0 0 0 0 0 0 0 0
0 0 0 0 0 0 0 0 0 1 5 11 19 20 16 16 19 25 36 41 31 17 11 10 8 6 4 2 0 0 0 0 0 0 0 0 0 0 0 0 0 0 0 0 0 0 0 0 0
0 0 0 0 0 0 0 0 1 3 7 16 26 28 24 22 23 27 36 45 44 34 27 27 24 17 11 5 2 0 0 0 0 0 0 0 0 0 0 0 0 0 0 0 0 0 0 0 0
0 0 0 0 0 0 0 0 1 4 11 22 32 36 31 25 24 29 41 55 60 55 51 51 48 38 25 15 7 3 1 0 0 0 0 0 0 0 0 0 0 0 0 0 0 0 0 0 0
0 0 0 0 0 0 0 0 0 4 12 23 33 37 31 24 28 39 51 63 70 70 70 73 71 63 49 32 18 11 9 7 4 2 1 1 2 1 1 0 0 0 0 0 0 0 0 0 0
0 0 0 0 0 0 0 0 0 3 10 19 27 30 24 20 28 43 55 65 75 81 84 87 88 83 72 55 38 31 31 28 17 8 5 6 5 4 2 1 0 0 0 0 0 0 0 0 0
0 0 0 0 0 0 0 0 0 1 6 13 20 24 20 16 23 36 52 68 80 86 88 93 95 93 87 76 63 55 53 46 29 14 10 9 7 4 2 2 1 0 0 0 0 0 0 0 0
0 0 0 0 0 0 0 0 0 0 2 6 12 16 17 15 20 34 54 72 82 84 86 93 96 96 92 87 80 71 61 47 30 16 11 9 7 4 2 2 1 0 0 0 0 0 0 0 0
0 0 0 0 0 0 0 0 0 0 0 2 4 7 11 14 21 37 58 74 82 83 86 93 96 94 91 87 81 69 53 36 22 12 7 6 4 2 1 1 0 0 0 0 0 0 0 0 0
0 0 0 0 0 0 0 0 0 0 0 0 1 3 8 14 23 39 60 78 85 87 90 95 96 93 89 81 70 55 37 21 11 6 3 2 1 1 0 0 0 0 0 0 0 0 0 0 0
0 0 0 0 0 0 0 0 0 0 0 0 1 3 10 21 32 46 66 82 89 92 95 97 95 90 83 73 57 40 24 11 4 1 0 0 0 0 0 0 0 0 0 0 0 0 0 0 0
0 0 0 0 0 0 0 0 0 0 0 0 0 3 14 29 43 58 73 86 92 95 97 95 89 80 72 61 46 31 17 7 1 0 0 0 0 0 0 0 0 0 0 0 0 0 0 0 0
0 0 0 0 0 0 0 0 0 0 0 0 2 6 17 34 52 69 83 91 95 97 95 89 79 67 58 48 35 23 12 4 1 0 0 0 0 0 0 0 0 0 0 0 0 0 0 0 0
0 0 0 0 0 0 0 0 0 0 0 1 7 15 26 43 64 81 92 95 96 94 87 77 66 53 42 32 22 14 7 2 0 0 0 0 0 0 0 0 0 0 0 0 0 0 0 0 0
0 0 0 0 0 0 0 0 0 1 3 7 16 31 46 61 77 89 94 94 90 83 73 60 48 36 25 18 13 8 4 2 0 0 0 0 0 0 0 0 0 0 0 0 0 0 0 0 0
0 0 0 0 0 0 0 0 1 5 11 20 32 49 65 76 84 87 85 81 73 63 50 37 27 19 12 9 7 5 3 1 0 0 0 0 0 0 0 0 0 0 0 0 0 0 0 0 0
0 0 0 0 0 0 0 0 1 5 16 28 40 54 67 75 77 73 65 57 47 35 24 16 11 7 5 4 3 2 1 1 0 0 0 0 0 0 0 0 0 0 0 0 0 0 0 0 0
0 0 0 0 0 0 0 0 1 3 12 25 37 46 53 58 57 48 38 29 20 12 6 4 3 2 1 1 1 1 0 0 0 0 0 0 0 0 0 0 0 0 0 0 0 0 0 0 0
0 0 0 0 0 0 0 0 1 2 7 20 31 36 36 35 31 23 15 9 5 2 1 0 0 0 0 0 0 0 0 0 0 0 0 0 0 0 0 0 0 0 0 0 0 0 0 0 0
0 0 0 0 0 0 0 0 1 2 8 18 27 28 25 20 14 9 5 2 1 0 0 0 0 0 0 0 0 0 0 0 0 0 0 0 0 0 0 0 0 0 0 0 0 0 0 0 0

GEFSSGP_con_probscp_042.txt.gz
Probability
0 0 0 0 0 0 0 0 0 0 0 0 0 0 0 0 0 0 0 0 0 0 0 1 4 8 9 6 3 2 1 2 4 4 6 10 14 16 16 12 6 3 1 0 0 0 0 0 0
0 0 0 0 0 0 0 0 0 0 0 0 0 0 0 0 0 0 0 0 0 0 0 1 3 6 6 4 2 1 0 1 1 2 3 5 7 8 7 5 3 1 0 0 0 0 0 0 0
0 0 0 0 0 0 0 0 0 0 0 0 0 0 0 0 0 0 0 0 0 0 0 1 2 4 4 3 1 0 0 0 0 0 1 1 1 1 1 0 0 0 0 0 0 0 0 0 0
0 0 0 0 0 0 0 0 0 0 0 0 0 0 0 0 0 0 0 0 0 0 0 1 2 3 3 2 1 0 0 0 0 0 0 0 0 0 0 0 0 0 0 0 0 0 0 0 0
0 0 0 0 0 0 0 0 0 0 0 0 0 0 0 0 0 0 0 0 0 0 0 0 1 2 1 1 0 0 0 0 0 0 0 0 0 0 0 0 0 0 0 0 0 0 0 0 0
0 0 0 0 0 0 0 0 0 0 0 0 0 0 0 0 0 0 0 0 0 0 0 0 0 0 0 0 0 0 0 0 0 0 0 0 0 0 0 0 0 0 0 0 0 0 0 0 0
0 0 0 0 0 0 0 0 0 0 0 0 0 0 0 0 0 0 0 0 0 0 0 0 0 0 0 0 0 0 0 0 0 0 0 0 0 0 0 0 0 0 0 0 0 0 0 0 0
0 0 0 0 0 0 0 0 0 1 1 0 0 0 1 0 0 0 0 0 0 0 0 0 0 0 0 0 0 0 0 0 0 0 0 0 0 0 0 0 0 0 0 0 0 0 0 0 0
0 0 0 0 0 0 0 0 1 2 2 1 0 0 0 0 1 1 0 0 0 0 0 0 0 0 0 0 0 0 0 0 0 0 0 0 0 0 0 0 0 0 0 0 0 0 0 0 0
0 0 0 0 0 0 0 0 1 2 2 1 0 0 1 1 1 1 0 0 0 0 0 0 0 1 2 1 1 1 0 0 0 0 0 0 0 0 0 0 0 0 0 0 0 0 0 0 0
0 0 0 0 0 0 0 0 0 1 1 0 1 4 6 4 2 1 1 0 0 0 0 0 0 3 5 4 3 2 1 0 0 0 0 0 0 0 0 0 0 0 0 0 0 0 0 0 0
0 0 0 0 0 0 0 0 0 0 0 0 3 12 17 12 6 4 2 1 0 0 0 0 0 3 6 7 6 5 4 2 1 0 0 0 0 0 0 0 0 0 0 0 0 0 0 0 0
0 0 0 0 0 0 0 0 0 0 0 0 6 20 28 24 16 11 8 5 3 1 0 0 1 4 9 11 10 9 6 4 3 1 0 0 0 0 0 0 0 0 0 0 0 0 0 0 0
0 0 0 0 0 0 0 0 0 0 0 1 10 26 35 32 25 21 19 16 10 6 3 2 3 8 14 16 15 13 9 6 4 2 0 0 0 0 0 0 0 0 0 0 0 0 0 0 0
0 0 0 0 0 0 0 0 0 0 0 2 13 29 37 36 33 31 30 27 22 17 11 7 7 12 19 22 21 18 12 8 6 3 1 1 1 0 0 0 0 0 0 0 0 0 0 0 0
0 0 0 0 0 0 0 0 0 0 0 2 12 26 34 36 36 36 36 34 34 32 27 21 20 24 30 32 30 24 16 10 7 5 3 3 2 1 0 0 0 0 0 0 0 0 0 0 0
0 0 0 0 0 0 0 0 0 0 0 1 7 18 28 32 33 33 33 37 43 48 49 47 45 48 51 48 40 31 22 13 8 5 4 5 6 3 1 0 0 0 0 0 0 0 0 0 0
0 0 0 0 0 0 0 0 0 0 0 0 3 11 19 24 25 25 28 35 46 59 69 72 72 73 71 64 52 40 28 18 12 8 6 7 9 7 3 1 0 0 0 0 0 0 0 0 0
0 0 0 0 0 0 0 0 0 0 0 0 1 5 11 15 16 17 22 29 42 61 77 85 88 87 82 74 62 46 31 20 14 10 6 6 8 7 3 1 0 0 0 0 0 0 0 0 0
0 0 0 0 0 0 0 0 0 0 0 0 0 2 5 8 9 12 15 22 35 55 75 87 91 89 82 71 57 40 25 15 9 6 5 4 4 3 1 0 0 0 0 0 0 0 0 0 0
0 0 0 0 0 0 0 0 0 0 0 0 1 1 2 3 5 8 11 18 30 47 67 81 85 80 70 57 44 30 18 10 4 2 2 2 1 1 0 0 0 0 0 0 0 0 0 0 0
0 0 0 0 0 0 0 0 0 0 0 2 3 4 4 4 6 9 12 17 26 39 56 70 72 65 53 44 37 28 17 7 2 1 1 1 0 0 0 0 0 0 0 0 0 0 0 0 0
0 0 0 0 0 0 0 0 0 0 2 5 8 11 11 11 13 17 20 24 29 37 48 56 54 46 39 35 30 23 13 5 1 0 0 0 0 0 0 0 0 0 0 0 0 0 0 0 0
0 0 0 0 0 0 0 0 0 2 6 10 13 17 22 25 28 33 36 38 39 39 42 43 36 28 25 23 19 12 6 1 0 0 0 0 0 0 0 0 0 0 0 0 0 0 0 0 0
0 0 0 0 0 0 0 0 1 3 8 13 18 24 31 37 41 44 46 44 39 34 33 31 24 17 13 11 8 4 1 0 0 0 0 0 0 0 0 0 0 0 0 0 0 0 0 0 0
0 0 0 0 0 0 0 0 1 5 11 18 25 30 35 39 39 38 37 31 25 22 20 17 13 9 6 3 2 1 0 0 0 0 0 0 0 0 0 0 0 0 0 0 0 0 0 0 0
0 0 0 0 0 0 0 0 1 5 12 21 27 32 33 32 28 23 19 15 12 11 8 5 3 2 1 0 0 0 0 0 0 0 0 0 0 0 0 0 0 0 0 0 0 0 0 0 0
0 0 0 0 0 0 0 0 1 4 10 18 24 27 27 24 18 12 8 6 5 4 2 0 0 0 0 0 0 0 0 0 0 0 0 0 0 0 0 0 0 0 0 0 0 0 0 0 0
0 0 0 0 0 0 0 0 0 3 9 17 20 21 19 16 11 6 3 2 1 0 0 0 0 0 0 0 0 0 0 0 0 0 0 0 0 0 0 0 0 0 0 0 0 0 0 0 0
0 0 0 0 0 0 0 0 0 3 11 17 18 16 14 11 7 4 2 1 0 0 0 0 0 0 0 0 0 0 0 0 0 0 0 0 0 0 0 0 0 0 0 0 0 0 0 0 0

GEFSSGP_con_probscp_048.txt.gz
Probability
0 0 0 0 0 0 0 0 0 0 0 0 0 0 0 0 0 0 0 0 0 0 0 0 0 0 0 0 1 4 10 13 12 11 12 13 11 8 6 3 1 0 0 0 0 0 0 0 0
0 0 0 0 0 0 0 0 0 0 0 0 0 0 0 0 0 0 0 0 0 0 0 0 0 0 0 0 1 3 6 8 8 8 9 8 6 4 4 2 0 0 0 0 0 0 0 0 0
0 0 0 0 0 0 0 0 0 0 0 0 0 0 0 0 0 0 0 0 0 0 0 0 0 0 0 0 0 1 2 2 3 4 5 4 2 1 1 1 0 0 0 0 0 0 0 0 0
0 0 0 0 0 0 0 0 0 0 0 0 0 0 0 0 0 0 0 0 0 0 0 0 0 0 0 0 0 0 0 0 0 1 3 3 1 0 0 0 0 0 0 0 0 0 0 0 0
0 0 0 0 0 0 0 0 0 0 0 0 0 0 0 0 0 0 0 0 0 0 0 0 1 1 0 0 0 0 0 0 0 0 1 2 1 0 0 0 0 0 0 0 0 0 0 0 0
0 0 0 0 0 0 0 0 0 0 0 0 0 0 0 0 0 0 0 0 0 0 0 0 1 1 0 0 0 0 0 0 0 0 0 1 1 0 0 0 0 0 0 0 0 0 0 0 0
0 0 0 0 0 0 0 0 0 0 0 0 0 0 1 1 1 1 1 0 0 0 0 0 1 1 0 0 0 0 0 0 0 0 0 0 0 0 0 0 0 0 0 0 0 0 0 0 0
0 0 0 0 0 0 0 0 0 0 0 0 0 0 1 3 3 3 2 1 0 0 0 0 0 0 0 0 0 0 0 0 0 0 0 0 0 0 0 0 0 0 0 0 0 0 0 0 0
0 0 0 0 0 0 0 0 0 0 0 0 0 0 3 6 6 5 3 1 0 0 0 0 0 0 0 0 0 0 0 0 0 0 0 0 0 0 0 1 2 1 1 0 0 0 0 0 0
0 0 0 0 0 0 0 0 0 0 0 0 0 1 5 9 9 7 3 1 0 0 0 0 0 0 0 0 0 0 0 0 0 0 0 0 0 0 0 1 2 2 1 0 0 0 0 0 0
0 0 0 0 0 0 0 0 0 0 0 0 0 2 7 10 10 7 3 1 0 0 0 0 0 0 0 0 0 0 0 0 0 0 0 0 0 0 0 1 1 1 1 0 0 0 0 0 0
0 0 0 0 0 0 0 0 0 0 0 0 0 2 6 9 8 6 4 1 0 0 0 0 0 0 0 0 0 0 0 0 0 1 1 1 1 1 1 1 1 0 0 0 0 0 0 0 0
0 0 0 0 0 0 0 0 0 0 0 0 0 1 3 5 5 5 4 3 1 0 0 0 0 1 1 2 2 2 2 2 3 3 4 5 5 4 4 5 5 3 3 3 2 1 0 0 0
0 0 0 0 0 0 0 0 0 0 0 0 0 0 1 2 4 5 6 7 5 3 2 2 2 3 5 7 7 6 6 8 9 10 11 12 11 11 12 15 17 14 12 13 9 3 0 0 0
0 0 0 0 0 0 0 0 0 0 0 0 0 0 0 1 3 5 9 12 12 11 11 9 8 10 16 19 18 15 14 17 19 20 21 20 20 24 29 32 35 33 28 25 19 9 3 1 1
0 0 0 0 0 0 0 0 0 0 0 0 0 0 0 0 1 4 10 17 24 29 31 28 26 29 36 40 37 33 33 34 33 33 34 31 30 37 46 49 53 52 42 33 25 15 8 4 4
0 0 0 0 0 0 0 0 0 0 0 0 0 0 1 1 2 4 10 23 40 53 58 57 55 56 60 62 60 56 58 55 49 48 47 43 41 46 53 58 59 55 44 33 25 17 11 9 8
0 0 0 0 0 0 0 0 0 0 0 0 1 2 3 4 5 7 14 29 52 70 77 78 78 79 80 80 79 75 72 66 59 56 53 48 45 46 48 49 44 38 33 26 19 14 11 9 8
0 0 0 0 0 0 0 0 0 0 1 2 5 6 7 9 10 12 19 34 55 73 83 86 90 93 94 93 90 84 76 66 56 51 46 40 37 35 33 29 24 21 19 16 13 10 8 5 4
0 0 0 0 0 0 0 0 0 1 3 8 12 15 17 18 19 21 27 37 53 69 81 89 94 98 99 97 92 83 72 59 48 39 32 26 23 21 19 15 13 12 11 9 7 5 4 2 1
0 0 0 0 0 0 0 0 0 2 9 18 26 32 35 35 34 35 39 46 56 68 80 88 93 97 98 95 87 76 64 50 38 29 22 16 14 14 13 11 9 7 5 3 2 1 1 0 0
0 0 0 0 0 0 0 0 0 4 14 30 44 53 56 55 51 48 51 59 67 75 82 87 90 92 92 89 82 71 58 44 31 22 15 11 9 8 7 6 5 3 1 0 0 0 0 0 0
0 0 0 0 0 0 0 0 0 6 22 42 60 69 69 67 61 55 58 67 74 79 83 85 85 83 80 76 71 63 51 37 25 15 10 6 4 3 2 2 1 1 0 0 0 0 0 0 0
0 0 0 0 0 0 0 0 4 16 34 53 65 69 68 65 60 56 59 66 71 74 75 75 71 66 62 59 55 49 39 27 16 8 4 2 1 0 0 0 0 0 0 0 0 0 0 0 0
0 0 0 0 0 0 0 2 12 29 43 53 58 57 55 52 49 47 48 52 56 57 56 52 46 41 38 38 37 32 24 16 8 4 3 1 0 0 0 0 0 0 0 0 0 0 0 0 0
0 0 0 0 0 0 0 5 19 32 39 43 44 40 35 31 30 29 28 29 32 33 31 27 22 18 16 17 17 14 9 7 4 3 3 2 0 0 0 0 0 0 0 0 0 0 0 0 0
0 0 0 0 0 0 0 5 16 24 28 31 30 25 18 14 12 11 10 11 13 14 12 10 8 5 4 4 4 3 2 1 1 1 1 1 0 0 0 0 0 0 0 0 0 0 0 0 0
0 0 0 0 0 0 0 2 9 18 23 23 20 14 8 4 3 3 2 3 4 4 3 2 2 1 0 0 0 0 0 0 0 0 0 0 0 0 0 0 0 0 0 0 0 0 0 0 0
0 0 0 0 0 0 0 0 7 21 27 22 15 9 5 2 1 1 0 1 1 1 0 0 0 0 0 0 0 0 0 0 0 0 0 0 0 0 0 0 0 0 0 0 0 0 0 0 0
0 0 0 0 0 0 0 1 9 24 32 24 13 7 5 2 1 0 0 0 0 0 0 0 0 0 0 0 0 0 0 0 0 0 0 0 0 0 0 0 0 0 0 0 0 0 0 0 0